SJ-11-01

Satellite information

Favourite Embed

Satellite Type and Status

PAYLOADIN ORBIT

Key statistics

Satellite SJ-11-01 at a glance.

Uptime

5655

Days in orbit

Revolutions

≈ 14.6

Per day

Orbit

SSO

Sun Synchronous Orbit

Inclination

98.0

Latest

Satellite identification and parameters

Extended collection of information and parameters for SJ-11-01.

Object identification

Identified? True

Debris? False

Object name: SJ-11-01

International designator: 2009-061A

Object number (NORAD): 36088

Object ID (CCSDS): 36088

Country: PEOPLES REPUBLIC OF CHINA (PRC)

Current information (Y/N): Y

RCS size: LARGE

Orbital parameters

Period: 98.426 minutes

Inclination: 97.9665 deg

SMA: 7061.551 km

Apoapsis: 690.403 km

Periapsis: 676.429 km

RAAN: 114.7344 deg

Eccentricy: 0.0009894

Argument of periapsis: 221.213 deg

Mean anomaly: 167.8338 deg

Mean motion: 14.63027897 rev/day

Mean motion (dot): 0.00000693 rev/day2

B* drag term: 0.00014391 1/REarth

Two-line elements (TLE)

Creation date: May 6, 2025, 3:54 a.m.

Reference frame: TEME

Reference center: EARTH

Epoch: May 5, 2025, 10:24 p.m. UTC

TLE line 0: 0 SJ-11-01

TLE line 1: 1 36088U 09061A 25125.93345538 .00000693 00000-0 14391-3 0 9995

TLE line 2: 2 36088 97.9665 114.7344 0009894 221.2130 167.8338 14.63027897824933

Live tracking on map

Real-time ground track for satellite SJ-11-01.

In-orbit conjunctions

There are no conjunctions computed for SJ-11-01, at the moment. Check back to stay up to date, as we update our databases every day.

Go to all conjunctions

Associated space launch

Chinese experimental satellite of unknown purpose

SJ-11-01 was lifted into orbit during the mission ‘Long March 2C | Shi Jian 11-01’, on board a Long March 2 space rocket.

The launch took place on Nov. 12, 2009, 2:45 a.m. from Launch Area 4 (SLS-2 / 603).

For more information about the launch, click the button.

Launch to space Long March 2C | Shi Jian 11-01
Long March 2C | Shi Jian 11-01

Agency: N/A

Status: Launch Successful

Launch date: Nov. 12, 2009, 2:45 a.m. UTC

Rocket: Long March 2

Launch pad: Launch Area 4 (SLS-2 / 603)

Location: Jiuquan Satellite Launch Center, People's Republic of China

...

Latest news about this satellite

There are no fresh news available about this satellite. Check back as we update our databases every day.


Newsletter sign-up

Weekly statistics, charts and insights to help you stay on top of the space industry.